QPF
0.00 0.00 0.00 0.00 0.00 0.00 0.00 0.00 0.00 0.00 0.00 0.00 0.00 0.00 0.00 0.00 0.00 0.00 0.00 0.00 0.00 0.00 0.00 0.00 0.00 0.00 0.00 0.00 0.00 0.00 0.00 0.00 0.00 0.00 0.00 0.00 0.00 0.00 0.00 0.00 0.00 0.00 0.00 0.00
0.00 0.00 0.00 0.00 0.00 0.00 0.00 0.00 0.00 0.00 0.00 0.00 0.00 0.00 0.00 0.00 0.00 0.00 0.00 0.00 0.00 0.00 0.00 0.00 0.00 0.00 0.00 0.00 0.00 0.00 0.00 0.00 0.00 0.00 0.00 0.00 0.00 0.00 0.00 0.00 0.00 0.00 0.00 0.00
0.00 0.00 0.00 0.00 0.00 0.00 0.00 0.00 0.00 0.00 0.00 0.00 0.00 0.00 0.00 0.00 0.00 0.00 0.00 0.00 0.00 0.00 0.00 0.00 0.00 0.00 0.00 0.00 0.00 0.00 0.00 0.00 0.00 0.00 0.00 0.00 0.00 0.00 0.00 0.00 0.00 0.00 0.00 0.00
0.00 0.00 0.00 0.00 0.00 0.00 0.00 0.00 0.00 0.00 0.00 0.00 0.00 0.00 0.00 0.00 0.00 0.00 0.00 0.00 0.00 0.00 0.00 0.00 0.00 0.00 0.00 0.00 0.00 0.00 0.00 0.00 0.00 0.00 0.00 0.00 0.00 0.00 0.00 0.00 0.00 0.00 0.00 0.00
0.00 0.00 0.00 0.00 0.00 0.00 0.00 0.00 0.00 0.00 0.00 0.00 0.00 0.00 0.00 0.00 0.00 0.00 0.00 0.00 0.00 0.00 0.00 0.00 0.00 0.00 0.00 0.00 0.00 0.00 0.00 0.00 0.00 0.00 0.00 0.00 0.00 0.00 0.00 0.00 0.00 0.00 0.00 0.00
0.00 0.00 0.00 0.00 0.00 0.00 0.00 0.00 0.00 0.00 0.00 0.00 0.00 0.00 0.00 0.00 0.00 0.00 0.00 0.00 0.00 0.00 0.00 0.00 0.00 0.00 0.00 0.00 0.00 0.00 0.00 0.00 0.00 0.00 0.00 0.00 0.00 0.00 0.00 0.00 0.00 0.00 0.00 0.00
0.00 0.00 0.00 0.00 0.00 0.00 0.00 0.00 0.00 0.00 0.00 0.00 0.00 0.00 0.00 0.00 0.00 0.00 0.00 0.00 0.00 0.00 0.00 0.00 0.00 0.00 0.00 0.00 0.00 0.00 0.00 0.00 0.00 0.00 0.00 0.00 0.00 0.00 0.00 0.00 0.00 0.00 0.00 0.00
0.00 0.00 0.00 0.00 0.00 0.00 0.00 0.00 0.00 0.00 0.00 0.00 0.00 0.00 0.00 0.00 0.00 0.00 0.00 0.00 0.00 0.00 0.00 0.00 0.00 0.00 0.00 0.00 0.00 0.00 0.00 0.00 0.00 0.00 0.00 0.00 0.00 0.00 0.00 0.00 0.00 0.00 0.00 0.00
0.00 0.00 0.00 0.00 0.00 0.00 0.00 0.00 0.00 0.00 0.00 0.00 0.00 0.00 0.00 0.00 0.00 0.00 0.00 0.00 0.00 0.00 0.00 0.00 0.00 0.00 0.00 0.00 0.00 0.00 0.00 0.00 0.00 0.00 0.00 0.00 0.00 0.00 0.00 0.00 0.00 0.00 0.00 0.00
0.00 0.00 0.00 0.00 0.00 0.00 0.00 0.00 0.00 0.00 0.00 0.00 0.00 0.00 0.00 0.00 0.00 0.00 0.00 0.00 0.00 0.00 0.00 0.00 0.00 0.00 0.00 0.00 0.00 0.00 0.00 0.00 0.00 0.00 0.00 0.00 0.00 0.00 0.00 0.00 0.01 0.01 0.00 0.00
0.00 0.00 0.00 0.00 0.00 0.00 0.00 0.00 0.00 0.00 0.00 0.00 0.00 0.00 0.00 0.00 0.00 0.00 0.00 0.00 0.00 0.00 0.00 0.00 0.00 0.00 0.00 0.00 0.00 0.00 0.00 0.00 0.00 0.00 0.00 0.00 0.00 0.00 0.00 0.00 0.02 0.03 0.01 0.02
0.00 0.00 0.00 0.00 0.00 0.00 0.00 0.00 0.00 0.00 0.00 0.00 0.00 0.00 0.00 0.00 0.00 0.00 0.00 0.00 0.00 0.00 0.00 0.00 0.00 0.00 0.00 0.00 0.00 0.00 0.00 0.00 0.00 0.00 0.00 0.00 0.00 0.00 0.00 0.00 0.00 0.00 0.01 0.01
0.00 0.00 0.00 0.00 0.00 0.00 0.00 0.00 0.00 0.00 0.00 0.00 0.00 0.00 0.00 0.00 0.00 0.00 0.00 0.00 0.00 0.00 0.00 0.00 0.00 0.00 0.00 0.00 0.00 0.00 0.00 0.00 0.00 0.00 0.00 0.00 0.00 0.00 0.00 0.00 0.00 0.00 0.00 0.01
0.00 0.00 0.00 0.00 0.00 0.00 0.00 0.00 0.00 0.00 0.00 0.00 0.00 0.00 0.00 0.00 0.00 0.00 0.00 0.00 0.00 0.00 0.00 0.00 0.00 0.00 0.00 0.00 0.00 0.00 0.00 0.00 0.00 0.00 0.00 0.00 0.00 0.00 0.00 0.00 0.00 0.00 0.00 0.00
0.00 0.00 0.00 0.00 0.00 0.00 0.00 0.00 0.00 0.00 0.00 0.00 0.00 0.00 0.00 0.00 0.00 0.00 0.00 0.00 0.00 0.00 0.00 0.00 0.00 0.00 0.00 0.00 0.00 0.00 0.00 0.00 0.00 0.00 0.00 0.00 0.00 0.00 0.00 0.00 0.00 0.00 0.00 0.00
0.00 0.00 0.00 0.00 0.00 0.00 0.00 0.00 0.00 0.00 0.00 0.00 0.00 0.00 0.00 0.00 0.00 0.00 0.00 0.00 0.00 0.00 0.00 0.00 0.00 0.00 0.00 0.00 0.00 0.00 0.00 0.00 0.00 0.00 0.00 0.00 0.00 0.00 0.00 0.00 0.01 0.01 0.01 0.02
0.00 0.00 0.00 0.00 0.00 0.00 0.00 0.00 0.00 0.00 0.00 0.00 0.00 0.00 0.00 0.00 0.00 0.00 0.00 0.00 0.00 0.00 0.00 0.00 0.00 0.00 0.00 0.00 0.00 0.00 0.00 0.00 0.00 0.00 0.00 0.00 0.00 0.00 0.00 0.00 0.01 0.00 0.00 0.01
0.00 0.00 0.00 0.00 0.00 0.00 0.00 0.00 0.00 0.00 0.00 0.00 0.00 0.00 0.00 0.00 0.00 0.00 0.00 0.00 0.00 0.00 0.00 0.00 0.00 0.00 0.00 0.00 0.00 0.00 0.00 0.00 0.00 0.00 0.00 0.00 0.00 0.00 0.00 0.00 0.00 0.00 0.00 0.00
0.00 0.00 0.00 0.00 0.00 0.00 0.00 0.00 0.00 0.00 0.00 0.00 0.00 0.00 0.00 0.00 0.00 0.00 0.00 0.00 0.00 0.00 0.00 0.00 0.00 0.00 0.00 0.00 0.00 0.00 0.00 0.00 0.00 0.00 0.00 0.00 0.00 0.00 0.00 0.00 0.00 0.00 0.00 0.00
0.00 0.00 0.00 0.00 0.00 0.00 0.00 0.00 0.00 0.00 0.00 0.00 0.00 0.00 0.00 0.00 0.00 0.00 0.00 0.00 0.00 0.00 0.00 0.00 0.00 0.00 0.00 0.00 0.00 0.00 0.00 0.00 0.00 0.00 0.00 0.00 0.00 0.00 0.00 0.00 0.00 0.00 0.00 0.00
0.00 0.00 0.00 0.00 0.00 0.00 0.00 0.00 0.00 0.00 0.00 0.00 0.00 0.00 0.00 0.00 0.00 0.00 0.00 0.00 0.00 0.00 0.00 0.00 0.00 0.00 0.00 0.00 0.00 0.00 0.00 0.00 0.00 0.00 0.00 0.00 0.00 0.00 0.00 0.00 0.00 0.00 0.00 0.00
0.00 0.00 0.00 0.00 0.00 0.00 0.00 0.00 0.00 0.00 0.00 0.00 0.00 0.00 0.00 0.00 0.00 0.00 0.00 0.00 0.00 0.00 0.00 0.00 0.00 0.00 0.00 0.00 0.00 0.00 0.00 0.00 0.00 0.00 0.00 0.00 0.00 0.00 0.00 0.00 0.00 0.00 0.00 0.00
0.00 0.00 0.00 0.00 0.00 0.00 0.00 0.00 0.00 0.00 0.00 0.00 0.00 0.00 0.00 0.00 0.00 0.00 0.00 0.00 0.00 0.00 0.00 0.00 0.00 0.00 0.00 0.00 0.00 0.00 0.00 0.00 0.00 0.00 0.00 0.00 0.00 0.00 0.00 0.00 0.00 0.00 0.00 0.00
0.00 0.00 0.00 0.00 0.00 0.00 0.00 0.00 0.00 0.00 0.00 0.00 0.00 0.00 0.00 0.00 0.00 0.00 0.00 0.00 0.00 0.00 0.00 0.00 0.00 0.00 0.00 0.00 0.00 0.00 0.00 0.00 0.00 0.00 0.00 0.00 0.00 0.00 0.00 0.00 0.00 0.00 0.00 0.00
0.00 0.00 0.00 0.00 0.00 0.00 0.00 0.00 0.00 0.00 0.00 0.00 0.00 0.00 0.00 0.00 0.00 0.00 0.00 0.00 0.00 0.00 0.00 0.00 0.00 0.00 0.00 0.00 0.00 0.00 0.00 0.00 0.00 0.00 0.00 0.00 0.00 0.00 0.00 0.00 0.00 0.00 0.00 0.00
0.00 0.00 0.00 0.00 0.00 0.00 0.00 0.00 0.00 0.00 0.00 0.00 0.00 0.00 0.00 0.00 0.00 0.00 0.00 0.00 0.00 0.00 0.00 0.00 0.00 0.00 0.00 0.00 0.00 0.00 0.00 0.00 0.00 0.00 0.00 0.00 0.00 0.00 0.00 0.00 0.00 0.00 0.00 0.00
0.00 0.00 0.00 0.00 0.00 0.00 0.00 0.00 0.00 0.00 0.00 0.00 0.00 0.00 0.00 0.00 0.00 0.00 0.00 0.00 0.00 0.00 0.00 0.00 0.00 0.00 0.00 0.00 0.00 0.00 0.00 0.00 0.00 0.00 0.00 0.00 0.00 0.00 0.00 0.00 0.00 0.00 0.00 0.00
MSLP
1029.04 1028.96 1028.88 1028.80 1028.70 1028.55 1028.33 1028.04 1027.71 1027.38 1027.13 1027.01 1027.12 1027.48 1028.13 1029.05 1030.18 1031.44 1032.75 1033.99 1035.08 1035.95 1036.56 1036.91 1037.03 1036.94 1036.70 1036.36 1035.96 1035.53 1035.09 1034.64 1034.17 1033.67 1033.13 1032.54 1031.89 1031.17 1030.39 1029.54 1028.64 1027.70 1026.73 1025.76
1029.37 1029.09 1028.76 1028.41 1028.04 1027.65 1027.27 1026.89 1026.57 1026.33 1026.22 1026.29 1026.58 1027.12 1027.89 1028.87 1030.00 1031.22 1032.45 1033.60 1034.61 1035.43 1036.03 1036.40 1036.58 1036.58 1036.44 1036.19 1035.87 1035.50 1035.10 1034.66 1034.20 1033.69 1033.15 1032.56 1031.91 1031.22 1030.47 1029.68 1028.84 1027.97 1027.08 1026.19
1029.66 1029.18 1028.61 1027.99 1027.36 1026.75 1026.21 1025.77 1025.46 1025.32 1025.38 1025.64 1026.14 1026.84 1027.74 1028.78 1029.92 1031.09 1032.23 1033.28 1034.19 1034.94 1035.50 1035.89 1036.10 1036.17 1036.12 1035.97 1035.74 1035.44 1035.09 1034.68 1034.23 1033.74 1033.20 1032.61 1031.98 1031.32 1030.60 1029.85 1029.07 1028.25 1027.42 1026.58
1029.80 1029.14 1028.35 1027.49 1026.63 1025.85 1025.19 1024.72 1024.45 1024.43 1024.65 1025.12 1025.81 1026.69 1027.71 1028.81 1029.95 1031.07 1032.12 1033.06 1033.87 1034.53 1035.04 1035.41 1035.65 1035.78 1035.79 1035.72 1035.56 1035.33 1035.03 1034.67 1034.24 1033.77 1033.25 1032.68 1032.08 1031.43 1030.75 1030.03 1029.28 1028.50 1027.69 1026.88
1029.67 1028.84 1027.87 1026.84 1025.82 1024.92 1024.20 1023.73 1023.54 1023.65 1024.05 1024.71 1025.59 1026.62 1027.75 1028.91 1030.05 1031.12 1032.09 1032.93 1033.64 1034.22 1034.68 1035.02 1035.26 1035.41 1035.47 1035.45 1035.35 1035.17 1034.92 1034.59 1034.20 1033.76 1033.26 1032.72 1032.15 1031.53 1030.87 1030.18 1029.44 1028.66 1027.86 1027.04
1029.15 1028.20 1027.11 1025.96 1024.86 1023.92 1023.20 1022.79 1022.70 1022.96 1023.52 1024.36 1025.40 1026.57 1027.80 1029.01 1030.15 1031.18 1032.08 1032.84 1033.47 1033.98 1034.38 1034.69 1034.92 1035.08 1035.16 1035.17 1035.10 1034.96 1034.73 1034.44 1034.08 1033.67 1033.21 1032.71 1032.16 1031.57 1030.93 1030.24 1029.50 1028.72 1027.89 1027.05
1028.18 1027.17 1026.02 1024.84 1023.75 1022.83 1022.19 1021.87 1021.92 1022.32 1023.04 1024.03 1025.20 1026.47 1027.77 1029.01 1030.15 1031.16 1032.02 1032.72 1033.30 1033.76 1034.12 1034.41 1034.63 1034.78 1034.87 1034.88 1034.82 1034.69 1034.48 1034.21 1033.88 1033.49 1033.06 1032.59 1032.08 1031.52 1030.89 1030.21 1029.46 1028.65 1027.80 1026.92
1026.79 1025.76 1024.63 1023.51 1022.49 1021.68 1021.16 1020.98 1021.17 1021.71 1022.57 1023.66 1024.93 1026.27 1027.60 1028.85 1029.99 1030.98 1031.81 1032.49 1033.04 1033.48 1033.84 1034.12 1034.33 1034.48 1034.56 1034.57 1034.51 1034.37 1034.16 1033.90 1033.58 1033.22 1032.82 1032.38 1031.89 1031.36 1030.75 1030.07 1029.31 1028.48 1027.59 1026.68
1025.04 1024.06 1023.02 1022.02 1021.15 1020.51 1020.16 1020.15 1020.49 1021.16 1022.10 1023.27 1024.57 1025.93 1027.26 1028.50 1029.62 1030.60 1031.42 1032.10 1032.65 1033.11 1033.47 1033.76 1033.99 1034.14 1034.23 1034.23 1034.16 1034.01 1033.80 1033.53 1033.22 1032.87 1032.49 1032.08 1031.62 1031.10 1030.51 1029.83 1029.07 1028.22 1027.32 1026.39
1023.07 1022.19 1021.30 1020.48 1019.83 1019.40 1019.26 1019.43 1019.91 1020.67 1021.68 1022.87 1024.16 1025.48 1026.77 1027.97 1029.06 1030.01 1030.83 1031.53 1032.11 1032.60 1033.00 1033.33 1033.58 1033.76 1033.85 1033.85 1033.77 1033.61 1033.39 1033.12 1032.81 1032.48 1032.12 1031.72 1031.28 1030.79 1030.21 1029.54 1028.78 1027.93 1027.02 1026.09
1021.02 1020.27 1019.59 1019.01 1018.61 1018.43 1018.51 1018.85 1019.46 1020.30 1021.33 1022.49 1023.73 1024.98 1026.19 1027.32 1028.35 1029.28 1030.09 1030.80 1031.42 1031.96 1032.42 1032.80 1033.10 1033.30 1033.42 1033.43 1033.36 1033.20 1032.98 1032.71 1032.41 1032.08 1031.74 1031.36 1030.95 1030.47 1029.91 1029.25 1028.50 1027.67 1026.77 1025.85
1018.98 1018.43 1017.97 1017.67 1017.54 1017.62 1017.92 1018.44 1019.16 1020.05 1021.08 1022.19 1023.34 1024.48 1025.58 1026.62 1027.58 1028.46 1029.26 1029.99 1030.64 1031.23 1031.75 1032.19 1032.54 1032.79 1032.94 1032.98 1032.92 1032.78 1032.57 1032.32 1032.03 1031.73 1031.40 1031.05 1030.65 1030.20 1029.66 1029.03 1028.31 1027.49 1026.62 1025.73
1017.04 1016.68 1016.49 1016.46 1016.61 1016.95 1017.47 1018.15 1018.97 1019.89 1020.90 1021.94 1022.99 1024.02 1025.00 1025.94 1026.82 1027.65 1028.43 1029.16 1029.84 1030.46 1031.03 1031.52 1031.92 1032.22 1032.41 1032.49 1032.47 1032.36 1032.19 1031.96 1031.71 1031.43 1031.14 1030.81 1030.45 1030.02 1029.52 1028.92 1028.22 1027.44 1026.60 1025.74
1015.19 1015.05 1015.10 1015.34 1015.76 1016.33 1017.05 1017.87 1018.78 1019.73 1020.72 1021.69 1022.65 1023.58 1024.46 1025.30 1026.11 1026.88 1027.63 1028.36 1029.05 1029.70 1030.30 1030.84 1031.28 1031.62 1031.86 1031.99 1032.01 1031.95 1031.82 1031.65 1031.44 1031.21 1030.96 1030.67 1030.34 1029.96 1029.49 1028.92 1028.27 1027.53 1026.73 1025.91
1013.41 1013.48 1013.76 1014.24 1014.88 1015.67 1016.55 1017.50 1018.48 1019.46 1020.43 1021.37 1022.26 1023.11 1023.92 1024.69 1025.44 1026.18 1026.90 1027.61 1028.30 1028.97 1029.59 1030.14 1030.62 1031.00 1031.28 1031.45 1031.53 1031.53 1031.46 1031.35 1031.20 1031.03 1030.83 1030.60 1030.32 1029.98 1029.55 1029.04 1028.43 1027.74 1026.99 1026.21
1011.69 1011.92 1012.40 1013.07 1013.90 1014.84 1015.85 1016.90 1017.94 1018.96 1019.94 1020.86 1021.72 1022.54 1023.31 1024.06 1024.78 1025.49 1026.20 1026.90 1027.59 1028.25 1028.88 1029.44 1029.93 1030.34 1030.66 1030.88 1031.02 1031.08 1031.09 1031.05 1030.98 1030.87 1030.74 1030.57 1030.34 1030.05 1029.68 1029.22 1028.67 1028.04 1027.34 1026.60
1010.00 1010.38 1010.99 1011.80 1012.75 1013.80 1014.90 1016.00 1017.09 1018.14 1019.14 1020.08 1020.95 1021.78 1022.56 1023.32 1024.05 1024.77 1025.48 1026.19 1026.87 1027.53 1028.15 1028.72 1029.22 1029.64 1030.00 1030.26 1030.46 1030.60 1030.68 1030.72 1030.72 1030.70 1030.63 1030.52 1030.35 1030.12 1029.80 1029.40 1028.92 1028.34 1027.70 1027.02
1008.40 1008.87 1009.57 1010.45 1011.46 1012.55 1013.68 1014.81 1015.92 1017.00 1018.02 1018.99 1019.91 1020.78 1021.61 1022.41 1023.19 1023.95 1024.69 1025.41 1026.10 1026.76 1027.38 1027.94 1028.45 1028.89 1029.28 1029.59 1029.85 1030.06 1030.22 1030.34 1030.42 1030.46 1030.46 1030.42 1030.31 1030.13 1029.88 1029.54 1029.11 1028.61 1028.04 1027.41
1006.95 1007.47 1008.20 1009.09 1010.10 1011.17 1012.28 1013.39 1014.50 1015.57 1016.62 1017.63 1018.60 1019.54 1020.45 1021.32 1022.17 1022.98 1023.77 1024.52 1025.23 1025.90 1026.52 1027.09 1027.61 1028.08 1028.49 1028.86 1029.18 1029.45 1029.69 1029.89 1030.04 1030.16 1030.22 1030.23 1030.17 1030.05 1029.85 1029.57 1029.21 1028.78 1028.27 1027.71
1005.75 1006.30 1007.01 1007.85 1008.79 1009.79 1010.83 1011.89 1012.95 1014.01 1015.06 1016.10 1017.12 1018.13 1019.11 1020.07 1020.99 1021.87 1022.71 1023.50 1024.24 1024.92 1025.56 1026.15 1026.69 1027.19 1027.65 1028.07 1028.45 1028.80 1029.11 1029.38 1029.61 1029.78 1029.90 1029.96 1029.95 1029.87 1029.71 1029.48 1029.19 1028.82 1028.38 1027.89
1004.89 1005.42 1006.08 1006.84 1007.68 1008.57 1009.50 1010.46 1011.45 1012.46 1013.49 1014.54 1015.59 1016.65 1017.69 1018.71 1019.70 1020.64 1021.53 1022.36 1023.13 1023.85 1024.51 1025.13 1025.70 1026.24 1026.76 1027.24 1027.69 1028.11 1028.50 1028.84 1029.12 1029.36 1029.52 1029.62 1029.64 1029.60 1029.48 1029.29 1029.04 1028.73 1028.36 1027.93
1004.38 1004.88 1005.47 1006.13 1006.84 1007.60 1008.39 1009.24 1010.13 1011.07 1012.06 1013.08 1014.14 1015.22 1016.29 1017.35 1018.38 1019.36 1020.28 1021.15 1021.95 1022.69 1023.39 1024.04 1024.67 1025.26 1025.84 1026.39 1026.91 1027.41 1027.87 1028.28 1028.62 1028.90 1029.11 1029.24 1029.29 1029.26 1029.17 1029.02 1028.81 1028.54 1028.22 1027.85
1004.19 1004.65 1005.17 1005.71 1006.30 1006.92 1007.58 1008.30 1009.08 1009.94 1010.86 1011.84 1012.87 1013.93 1015.00 1016.06 1017.10 1018.09 1019.03 1019.91 1020.73 1021.50 1022.23 1022.93 1023.60 1024.26 1024.90 1025.53 1026.13 1026.71 1027.24 1027.71 1028.11 1028.44 1028.68 1028.84 1028.91 1028.90 1028.83 1028.69 1028.51 1028.28 1027.99 1027.66
1004.20 1004.63 1005.07 1005.52 1005.99 1006.49 1007.04 1007.64 1008.32 1009.09 1009.93 1010.84 1011.82 1012.84 1013.87 1014.90 1015.91 1016.88 1017.81 1018.69 1019.52 1020.31 1021.07 1021.81 1022.54 1023.26 1023.97 1024.68 1025.36 1026.00 1026.60 1027.14 1027.60 1027.96 1028.24 1028.42 1028.51 1028.52 1028.46 1028.34 1028.17 1027.96 1027.71 1027.40
1004.27 1004.66 1005.04 1005.42 1005.80 1006.21 1006.67 1007.19 1007.79 1008.47 1009.23 1010.08 1010.98 1011.93 1012.90 1013.88 1014.84 1015.77 1016.66 1017.52 1018.35 1019.15 1019.93 1020.71 1021.48 1022.26 1023.04 1023.82 1024.57 1025.29 1025.95 1026.55 1027.05 1027.46 1027.77 1027.97 1028.08 1028.11 1028.07 1027.96 1027.81 1027.61 1027.38 1027.10
1004.22 1004.59 1004.93 1005.26 1005.59 1005.95 1006.35 1006.82 1007.36 1007.98 1008.68 1009.45 1010.28 1011.16 1012.06 1012.96 1013.86 1014.73 1015.58 1016.41 1017.22 1018.02 1018.82 1019.62 1020.44 1021.28 1022.12 1022.95 1023.76 1024.54 1025.26 1025.90 1026.45 1026.90 1027.24 1027.47 1027.60 1027.65 1027.63 1027.54 1027.40 1027.23 1027.01 1026.75
1003.91 1004.26 1004.59 1004.90 1005.22 1005.56 1005.95 1006.39 1006.90 1007.49 1008.14 1008.86 1009.63 1010.44 1011.26 1012.09 1012.92 1013.73 1014.54 1015.33 1016.13 1016.92 1017.74 1018.57 1019.42 1020.29 1021.18 1022.05 1022.91 1023.73 1024.49 1025.16 1025.75 1026.23 1026.60 1026.86 1027.02 1027.10 1027.10 1027.04 1026.93 1026.78 1026.58 1026.35
Thickness
5624 5624 5621 5619 5615 5598 5588 5588 5583 5590 5584 5604 5590 5559 5538 5511 5489 5471 5453 5438 5423 5404 5383 5365 5348 5332 5317 5303 5289 5276 5262 5250 5236 5224 5211 5198 5186 5174 5161 5147 5133 5120 5112 5109
5625 5627 5618 5613 5614 5605 5596 5590 5584 5584 5595 5604 5575 5554 5530 5507 5491 5474 5456 5440 5422 5404 5384 5365 5347 5331 5316 5302 5289 5275 5261 5248 5236 5224 5212 5200 5189 5177 5164 5150 5137 5125 5115 5110
5620 5620 5624 5632 5638 5615 5609 5600 5596 5596 5607 5596 5571 5548 5529 5510 5493 5476 5456 5438 5420 5402 5383 5365 5347 5331 5316 5303 5288 5274 5260 5247 5236 5224 5213 5202 5190 5179 5167 5154 5142 5130 5120 5113
5603 5618 5636 5658 5644 5633 5627 5621 5602 5602 5604 5586 5570 5548 5529 5510 5493 5474 5455 5437 5419 5400 5382 5364 5347 5332 5317 5303 5288 5273 5260 5247 5236 5225 5214 5203 5193 5182 5170 5159 5148 5136 5126 5118
5597 5608 5623 5646 5640 5627 5623 5627 5623 5609 5607 5576 5544 5537 5523 5508 5493 5475 5454 5435 5416 5398 5381 5364 5348 5332 5317 5303 5288 5274 5261 5249 5239 5227 5216 5206 5196 5185 5175 5164 5155 5144 5135 5126
5585 5609 5620 5652 5635 5623 5623 5621 5630 5611 5599 5556 5544 5544 5542 5514 5492 5470 5451 5433 5414 5396 5380 5364 5349 5334 5319 5304 5289 5276 5263 5252 5242 5230 5219 5209 5199 5189 5180 5171 5163 5153 5143 5134
5579 5591 5621 5644 5623 5621 5621 5633 5640 5615 5594 5562 5555 5557 5538 5513 5489 5469 5449 5430 5413 5395 5380 5366 5351 5336 5321 5306 5291 5279 5267 5256 5245 5234 5223 5214 5204 5194 5185 5177 5167 5158 5150 5142
5578 5583 5621 5638 5617 5624 5642 5644 5632 5613 5593 5573 5560 5538 5523 5507 5488 5468 5448 5429 5411 5395 5381 5367 5352 5337 5322 5308 5295 5282 5270 5259 5249 5238 5228 5220 5208 5200 5192 5183 5175 5168 5161 5155
5624 5647 5657 5641 5645 5647 5642 5634 5623 5609 5592 5574 5554 5536 5522 5504 5485 5466 5447 5429 5411 5396 5382 5368 5354 5339 5324 5311 5297 5284 5272 5262 5252 5243 5233 5224 5215 5207 5200 5192 5185 5180 5172 5165
5616 5650 5654 5642 5642 5642 5633 5629 5623 5607 5590 5574 5557 5541 5522 5504 5484 5465 5447 5429 5412 5397 5383 5370 5356 5342 5328 5314 5300 5286 5274 5264 5255 5245 5238 5230 5222 5215 5207 5201 5196 5191 5183 5176
5625 5650 5649 5656 5652 5653 5642 5627 5616 5601 5588 5577 5561 5542 5524 5506 5488 5468 5451 5433 5414 5400 5387 5374 5359 5345 5332 5317 5303 5289 5277 5267 5257 5249 5240 5233 5228 5221 5215 5209 5204 5200 5192 5186
5658 5667 5657 5669 5669 5655 5641 5629 5616 5600 5584 5573 5561 5546 5526 5509 5491 5471 5453 5434 5418 5403 5389 5376 5362 5348 5335 5321 5306 5292 5281 5271 5261 5253 5244 5237 5229 5225 5221 5216 5211 5205 5200 5194
5677 5674 5664 5666 5662 5649 5640 5630 5616 5604 5591 5574 5559 5545 5529 5510 5491 5472 5455 5437 5422 5407 5393 5378 5364 5351 5338 5325 5310 5297 5285 5275 5265 5258 5249 5241 5235 5229 5224 5221 5216 5210 5205 5201
5667 5658 5653 5658 5651 5643 5633 5624 5610 5598 5586 5574 5560 5543 5527 5509 5492 5474 5458 5442 5426 5409 5394 5380 5367 5354 5342 5328 5315 5302 5290 5280 5271 5261 5252 5243 5236 5231 5226 5222 5219 5214 5210 5206
5661 5652 5653 5655 5644 5632 5619 5607 5596 5588 5576 5565 5552 5540 5525 5509 5494 5478 5461 5443 5426 5409 5395 5382 5369 5358 5345 5332 5319 5306 5294 5283 5274 5265 5256 5247 5240 5233 5227 5223 5220 5216 5213 5209
5660 5651 5645 5639 5635 5619 5606 5599 5595 5589 5576 5564 5550 5539 5526 5513 5497 5479 5460 5444 5428 5414 5400 5385 5374 5362 5349 5336 5323 5310 5297 5288 5279 5269 5259 5250 5242 5235 5229 5225 5222 5218 5215 5211
5651 5652 5641 5635 5635 5621 5611 5606 5603 5594 5579 5566 5554 5539 5522 5507 5491 5476 5461 5446 5432 5418 5403 5389 5377 5365 5352 5339 5326 5313 5301 5289 5281 5270 5261 5252 5245 5238 5231 5226 5222 5218 5214 5212
5664 5668 5664 5654 5645 5628 5615 5607 5600 5591 5581 5569 5552 5535 5521 5510 5497 5481 5463 5445 5429 5415 5403 5391 5379 5366 5354 5342 5329 5317 5304 5292 5281 5271 5263 5255 5249 5240 5233 5227 5222 5218 5215 5213
5659 5659 5659 5652 5645 5631 5620 5609 5599 5590 5578 5564 5550 5537 5527 5516 5502 5483 5463 5445 5430 5418 5408 5394 5381 5368 5356 5345 5333 5320 5307 5295 5284 5274 5266 5259 5249 5242 5235 5228 5223 5219 5216 5214
5648 5646 5644 5642 5634 5627 5620 5609 5596 5586 5574 5561 5549 5536 5524 5513 5499 5482 5464 5450 5442 5431 5415 5398 5385 5372 5359 5348 5337 5323 5310 5298 5287 5277 5268 5259 5251 5243 5236 5231 5225 5221 5218 5214
5630 5629 5628 5630 5628 5623 5617 5606 5593 5583 5571 5560 5550 5540 5528 5513 5498 5482 5466 5455 5444 5427 5413 5402 5388 5375 5362 5350 5340 5326 5313 5302 5290 5279 5269 5260 5252 5245 5239 5232 5227 5223 5219 5215
5618 5620 5625 5626 5623 5618 5610 5600 5590 5579 5566 5556 5547 5537 5524 5510 5496 5483 5473 5466 5450 5431 5415 5403 5391 5378 5365 5354 5341 5328 5316 5305 5294 5282 5271 5262 5254 5246 5240 5234 5228 5224 5220 5215
5615 5616 5617 5616 5614 5609 5597 5590 5583 5574 5564 5556 5548 5539 5529 5517 5503 5489 5476 5463 5449 5435 5419 5406 5394 5382 5370 5357 5343 5331 5319 5308 5297 5286 5275 5264 5256 5248 5241 5235 5229 5224 5220 5216
5588 5590 5592 5592 5591 5588 5586 5582 5573 5566 5557 5551 5544 5537 5527 5515 5502 5494 5485 5469 5452 5438 5422 5409 5397 5385 5373 5359 5346 5334 5322 5311 5300 5289 5278 5268 5258 5250 5243 5236 5230 5226 5222 5218
5559 5562 5563 5565 5570 5576 5574 5565 5557 5550 5543 5539 5533 5526 5521 5517 5508 5495 5481 5469 5454 5439 5423 5411 5400 5387 5375 5361 5349 5337 5326 5314 5303 5292 5281 5271 5261 5253 5246 5239 5233 5228 5223 5220
5539 5543 5548 5551 5555 5556 5554 5551 5550 5546 5539 5532 5526 5520 5513 5507 5499 5490 5477 5466 5453 5441 5425 5412 5400 5389 5376 5363 5351 5340 5329 5318 5308 5298 5286 5275 5265 5256 5248 5241 5235 5230 5226 5222
5522 5526 5530 5534 5538 5540 5541 5540 5541 5540 5538 5534 5526 5518 5510 5502 5494 5484 5474 5462 5450 5438 5424 5411 5401 5390 5377 5365 5353 5342 5331 5321 5310 5300 5289 5279 5269 5260 5252 5244 5238 5233 5228 5225